Port Imperial New Jersey — WBR3133 — position and weather

sailwx.info

Track history (hours):
 
Tides and Currents Weather Stations Pressure Air Temp Water Temp Dewpoint Dewpoint Depression Visibility Wind Speed Wind Dir Waves Ship Positions

Port Imperial New Jersey

Owner: PORT IMPERIAL FERRY CORP, WEEHAWKEN, NJ. More information available from US FCC via Universal Licensing System and Coast Guard Vessel Documentation Center.

Last reported at 2014-Oct-24 11:34 UTC. Time now 2014-Oct-24 12:06 UTC.
Position N 40°46' W 074°01'.

Length 31 m.

Type: Passenger vessel. MMSI: 366990550.

Date/timePositionNaut miles runAvg speedWind from/ knotsBaromVisibWave heightAir tempDewpointWater temp
2014-Oct-24 11:34N 40°46' W 074°01'1 0.8
2014-Oct-24 10:33N 40°46' W 074°01'0 0.0
2014-Oct-24 09:33N 40°46' W 074°01'0 0.0
2014-Oct-24 08:33N 40°46' W 074°01'0 0.0
2014-Oct-24 07:33N 40°46' W 074°01'0 0.0
2014-Oct-24 06:33N 40°46' W 074°01'0 0.0
2014-Oct-24 05:33N 40°46' W 074°01'0 0.0
2014-Oct-24 04:33N 40°46' W 074°01'0 0.0
2014-Oct-24 03:34N 40°46' W 074°01'0 0.0
2014-Oct-24 02:34N 40°46' W 074°01'0 0.0
2014-Oct-24 01:33N 40°46' W 074°01'0 0.0
2014-Oct-24 00:33N 40°46' W 074°01'0 0.0
2014-Oct-23 23:33N 40°46' W 074°01'0 0.0
2014-Oct-23 22:33N 40°46' W 074°01'0 0.0
2014-Oct-23 21:33N 40°46' W 074°01'0 0.0
2014-Oct-23 20:33N 40°46' W 074°01'0 0.0
2014-Oct-23 19:33N 40°46' W 074°01'0 0.0
2014-Oct-23 18:33N 40°46' W 074°01'0 0.0
2014-Oct-23 17:33N 40°46' W 074°01'1 0.8
2014-Oct-23 16:33N 40°45' W 074°01'0 0.2
2014-Oct-23 15:32N 40°46' W 074°00'0 0.0
2014-Oct-23 14:33N 40°46' W 074°00'1 0.7
2014-Oct-23 13:33N 40°45' W 074°01'0 0.0
2014-Oct-23 12:33N 40°45' W 074°01'0 0.4
2014-Oct-23 11:34N 40°46' W 074°01'1 0.7
2014-Oct-23 10:33N 40°46' W 074°01'1 0.0
2014-Oct-22 16:33N 40°46' W 074°00'0 0.2
2014-Oct-22 15:33N 40°46' W 074°00'1 0.7
2014-Oct-22 14:25N 40°46' W 074°01'1 1.1
2014-Oct-22 13:33N 40°45' W 074°01'0 0.0
2014-Oct-22 12:34N 40°45' W 074°01'0 0.5
2014-Oct-22 11:34N 40°46' W 074°01'1 0.0
2014-Oct-21 20:33N 40°46' W 074°01'0 0.0
2014-Oct-21 15:29N 40°46' W 074°01'2 2.2
2014-Oct-21 14:33N 40°44' W 074°01'1 1.4
2014-Oct-21 13:33N 40°46' W 074°00'0 0.1
2014-Oct-21 12:33N 40°46' W 074°01'0 0.1
2014-Oct-21 11:33N 40°46' W 074°00'1 0.7
2014-Oct-21 10:33N 40°46' W 074°01'0 0.0
2014-Oct-20 14:18N 40°46' W 074°01'1 0.9
2014-Oct-20 13:33N 40°46' W 074°00'1 0.7
2014-Oct-20 12:33N 40°45' W 074°01'0 0.0
2014-Oct-20 11:33N 40°45' W 074°01'1 0.0
2014-Oct-19 20:33N 40°46' W 074°00'3 3.3
2014-Oct-19 19:31N 40°42' W 073°60'0 0.4
2014-Oct-19 18:34N 40°42' W 074°00'0 0.2
2014-Oct-19 17:33N 40°42' W 074°00'4 3.5
2014-Oct-19 16:34N 40°46' W 074°00'0 0.1
2014-Oct-19 15:33N 40°46' W 074°00'2 1.5
2014-Oct-19 14:33N 40°44' W 074°01'2 2.1
2014-Oct-19 13:34N 40°46' W 074°01'0 0.0
2014-Oct-19 12:33N 40°46' W 074°01'0 0.0
2014-Oct-19 11:34N 40°46' W 074°01'0 0.0
2014-Oct-19 10:34N 40°46' W 074°01'0 0.0
2014-Oct-19 09:33N 40°46' W 074°01'0 0.0
2014-Oct-19 08:34N 40°46' W 074°01'0 0.0
2014-Oct-19 07:33N 40°46' W 074°01'0 0.0
2014-Oct-19 06:33N 40°46' W 074°01'0 0.0
2014-Oct-19 05:33N 40°46' W 074°01'0 0.0
2014-Oct-19 04:33N 40°46' W 074°01'0 0.0
2014-Oct-19 03:33N 40°46' W 074°01'0 0.0
2014-Oct-18 18:23N 40°46' W 074°01'0 0.0
2014-Oct-18 16:14N 40°46' W 074°01'1 1.1
2014-Oct-18 15:34N 40°46' W 074°00'0 0.0
2014-Oct-18 14:33N 40°46' W 074°00'0 0.0
2014-Oct-17 15:34N 40°46' W 074°00'0 0.4
2014-Oct-17 14:33N 40°46' W 074°01'1 0.9
2014-Oct-17 13:33N 40°46' W 074°01'0 0.2
2014-Oct-17 12:33N 40°45' W 074°01'0 0.0
2014-Oct-17 11:33N 40°45' W 074°01'1 0.1
2014-Oct-17 00:07N 40°46' W 074°01'1 1.7
2014-Oct-16 23:34N 40°45' W 074°01'0 0.1
2014-Oct-16 22:33N 40°45' W 074°01'0 0.1
2014-Oct-16 21:33N 40°45' W 074°01'0 0.3
2014-Oct-16 20:33N 40°45' W 074°01'0 0.1
2014-Oct-16 17:29N 40°46' W 074°00'0 0.0
2014-Oct-16 16:33N 40°46' W 074°00'0 0.0
2014-Oct-16 15:33N 40°46' W 074°00'0 0.0
2014-Oct-16 14:33N 40°46' W 074°00'1 0.8
2014-Oct-16 13:33N 40°46' W 074°01'0 0.3
2014-Oct-16 12:34N 40°45' W 074°01'0 0.2
2014-Oct-16 11:31N 40°45' W 074°01'1 0.0
2014-Oct-15 16:33N 40°46' W 074°00'0 0.1
2014-Oct-15 15:33N 40°46' W 074°00'1 0.6
2014-Oct-15 14:33N 40°46' W 074°01'1 0.7
2014-Oct-15 13:34N 40°46' W 074°01'0 0.5
2014-Oct-15 12:34N 40°46' W 074°01'0 0.2
2014-Oct-15 11:33N 40°45' W 074°01'1 0.1
2014-Oct-14 16:31N 40°46' W 074°01'1 0.9
2014-Oct-14 15:33N 40°45' W 074°01'1 0.8
2014-Oct-14 14:33N 40°46' W 074°01'1 0.9
2014-Oct-14 13:33N 40°45' W 074°01'0 0.2
2014-Oct-14 12:33N 40°46' W 074°01'  
Track history (hours):
 
Tides and Currents Weather Stations Pressure Air Temp Water Temp Dewpoint Dewpoint Depression Visibility Wind Speed Wind Dir Waves Ship Positions

Port Imperial New Jersey

Owner: PORT IMPERIAL FERRY CORP, WEEHAWKEN, NJ. More information available from US FCC via Universal Licensing System and Coast Guard Vessel Documentation Center.

Last reported at 2014-Oct-24 11:34 UTC. Time now 2014-Oct-24 12:06 UTC.
Position N 40°46' W 074°01'.

Length 31 m.

Type: Passenger vessel. MMSI: 366990550.

Date/timePositionNaut miles runAvg speedWind from/ knotsBaromVisibWave heightAir tempDewpointWater temp
2014-Oct-24 11:34N 40°46' W 074°01'1 0.8
2014-Oct-24 10:33N 40°46' W 074°01'0 0.0
2014-Oct-24 09:33N 40°46' W 074°01'0 0.0
2014-Oct-24 08:33N 40°46' W 074°01'0 0.0
2014-Oct-24 07:33N 40°46' W 074°01'0 0.0
2014-Oct-24 06:33N 40°46' W 074°01'0 0.0
2014-Oct-24 05:33N 40°46' W 074°01'0 0.0
2014-Oct-24 04:33N 40°46' W 074°01'0 0.0
2014-Oct-24 03:34N 40°46' W 074°01'0 0.0
2014-Oct-24 02:34N 40°46' W 074°01'0 0.0
2014-Oct-24 01:33N 40°46' W 074°01'0 0.0
2014-Oct-24 00:33N 40°46' W 074°01'0 0.0
2014-Oct-23 23:33N 40°46' W 074°01'0 0.0
2014-Oct-23 22:33N 40°46' W 074°01'0 0.0
2014-Oct-23 21:33N 40°46' W 074°01'0 0.0
2014-Oct-23 20:33N 40°46' W 074°01'0 0.0
2014-Oct-23 19:33N 40°46' W 074°01'0 0.0
2014-Oct-23 18:33N 40°46' W 074°01'0 0.0
2014-Oct-23 17:33N 40°46' W 074°01'1 0.8
2014-Oct-23 16:33N 40°45' W 074°01'0 0.2
2014-Oct-23 15:32N 40°46' W 074°00'0 0.0
2014-Oct-23 14:33N 40°46' W 074°00'1 0.7
2014-Oct-23 13:33N 40°45' W 074°01'0 0.0
2014-Oct-23 12:33N 40°45' W 074°01'0 0.4
2014-Oct-23 11:34N 40°46' W 074°01'1 0.7
2014-Oct-23 10:33N 40°46' W 074°01'1 0.0
2014-Oct-22 16:33N 40°46' W 074°00'0 0.2
2014-Oct-22 15:33N 40°46' W 074°00'1 0.7
2014-Oct-22 14:25N 40°46' W 074°01'1 1.1
2014-Oct-22 13:33N 40°45' W 074°01'0 0.0
2014-Oct-22 12:34N 40°45' W 074°01'0 0.5
2014-Oct-22 11:34N 40°46' W 074°01'1 0.0
2014-Oct-21 20:33N 40°46' W 074°01'0 0.0
2014-Oct-21 15:29N 40°46' W 074°01'2 2.2
2014-Oct-21 14:33N 40°44' W 074°01'1 1.4
2014-Oct-21 13:33N 40°46' W 074°00'0 0.1
2014-Oct-21 12:33N 40°46' W 074°01'0 0.1
2014-Oct-21 11:33N 40°46' W 074°00'1 0.7
2014-Oct-21 10:33N 40°46' W 074°01'0 0.0
2014-Oct-20 14:18N 40°46' W 074°01'1 0.9
2014-Oct-20 13:33N 40°46' W 074°00'1 0.7
2014-Oct-20 12:33N 40°45' W 074°01'0 0.0
2014-Oct-20 11:33N 40°45' W 074°01'1 0.0
2014-Oct-19 20:33N 40°46' W 074°00'3 3.3
2014-Oct-19 19:31N 40°42' W 073°60'0 0.4
2014-Oct-19 18:34N 40°42' W 074°00'0 0.2
2014-Oct-19 17:33N 40°42' W 074°00'4 3.5
2014-Oct-19 16:34N 40°46' W 074°00'0 0.1
2014-Oct-19 15:33N 40°46' W 074°00'2 1.5
2014-Oct-19 14:33N 40°44' W 074°01'2 2.1
2014-Oct-19 13:34N 40°46' W 074°01'0 0.0
2014-Oct-19 12:33N 40°46' W 074°01'0 0.0
2014-Oct-19 11:34N 40°46' W 074°01'0 0.0
2014-Oct-19 10:34N 40°46' W 074°01'0 0.0
2014-Oct-19 09:33N 40°46' W 074°01'0 0.0
2014-Oct-19 08:34N 40°46' W 074°01'0 0.0
2014-Oct-19 07:33N 40°46' W 074°01'0 0.0
2014-Oct-19 06:33N 40°46' W 074°01'0 0.0
2014-Oct-19 05:33N 40°46' W 074°01'0 0.0
2014-Oct-19 04:33N 40°46' W 074°01'0 0.0
2014-Oct-19 03:33N 40°46' W 074°01'0 0.0
2014-Oct-18 18:23N 40°46' W 074°01'0 0.0
2014-Oct-18 16:14N 40°46' W 074°01'1 1.1
2014-Oct-18 15:34N 40°46' W 074°00'0 0.0
2014-Oct-18 14:33N 40°46' W 074°00'0 0.0
2014-Oct-17 15:34N 40°46' W 074°00'0 0.4
2014-Oct-17 14:33N 40°46' W 074°01'1 0.9
2014-Oct-17 13:33N 40°46' W 074°01'0 0.2
2014-Oct-17 12:33N 40°45' W 074°01'0 0.0
2014-Oct-17 11:33N 40°45' W 074°01'1 0.1
2014-Oct-17 00:07N 40°46' W 074°01'1 1.7
2014-Oct-16 23:34N 40°45' W 074°01'0 0.1
2014-Oct-16 22:33N 40°45' W 074°01'0 0.1
2014-Oct-16 21:33N 40°45' W 074°01'0 0.3
2014-Oct-16 20:33N 40°45' W 074°01'0 0.1
2014-Oct-16 17:29N 40°46' W 074°00'0 0.0
2014-Oct-16 16:33N 40°46' W 074°00'0 0.0
2014-Oct-16 15:33N 40°46' W 074°00'0 0.0
2014-Oct-16 14:33N 40°46' W 074°00'1 0.8
2014-Oct-16 13:33N 40°46' W 074°01'0 0.3
2014-Oct-16 12:34N 40°45' W 074°01'0 0.2
2014-Oct-16 11:31N 40°45' W 074°01'1 0.0
2014-Oct-15 16:33N 40°46' W 074°00'0 0.1
2014-Oct-15 15:33N 40°46' W 074°00'1 0.6
2014-Oct-15 14:33N 40°46' W 074°01'1 0.7
2014-Oct-15 13:34N 40°46' W 074°01'0 0.5
2014-Oct-15 12:34N 40°46' W 074°01'0 0.2
2014-Oct-15 11:33N 40°45' W 074°01'1 0.1
2014-Oct-14 16:31N 40°46' W 074°01'1 0.9
2014-Oct-14 15:33N 40°45' W 074°01'1 0.8
2014-Oct-14 14:33N 40°46' W 074°01'1 0.9
2014-Oct-14 13:33N 40°45' W 074°01'0 0.2
2014-Oct-14 12:33N 40°46' W 074°01'  

Dump ship's entire track history